,,,PA_Meas_PMT16A,,PR_Meas_QMR101_102,,RH_Meas_QMH101,,SR_Meas_QMS101,,TA_Meas_QMH101,,GenWind,,GenWind,
date,time,status,PA,status,PR,status,RH,status,SR,status,TA,status,DirAvg,status,SpdAvg,
2014-12-10, 00:00:04,VALID,1010.95,VALID,0,INVALID,132.284,VALID,0,VALID,22.8952,VALID,72,VALID,0,
2014-12-10, 00:01:04,VALID,1010.91,VALID,0,INVALID,132.055,VALID,0,VALID,22.8952,VALID,72,VALID,0,
2014-12-10, 00:02:04,VALID,1010.92,VALID,0,INVALID,131.537,VALID,0,VALID,22.8757,VALID,72,VALID,0,
2014-12-10, 00:03:04,VALID,1010.92,VALID,0,INVALID,131.087,VALID,0,VALID,22.8545,VALID,72,VALID,0,
2014-12-10, 00:04:04,VALID,1010.91,VALID,0,INVALID,130.705,VALID,0.112112,VALID,22.8757,VALID,72,VALID,0,
2014-12-10, 00:05:04,VALID,1010.91,VALID,0,INVALID,131.575,VALID,0.112112,VALID,22.8952,VALID,72,VALID,0,
2014-12-10, 00:06:04,VALID,1010.9,VALID,0,INVALID,132.086,VALID,0.112112,VALID,22.8545,VALID,72,VALID,0,
2014-12-10, 00:07:04,VALID,1010.91,VALID,0,INVALID,131.933,VALID,0.112112,VALID,22.8757,VALID,72,VALID,0,
2014-12-10, 00:08:04,VALID,1010.9,VALID,0,INVALID,131.933,VALID,0.112112,VALID,22.8757,VALID,72,VALID,0,
2014-12-10, 00:09:04,VALID,1010.92,VALID,0,INVALID,131.788,VALID,0,VALID,22.8545,VALID,72,VALID,0,
2014-12-10, 00:10:04,VALID,1010.93,VALID,0,INVALID,131.887,VALID,0,VALID,22.8562,VALID,72,VALID,0,
2014-12-10, 00:11:04,VALID,1010.93,VALID,0,INVALID,132.459,VALID,0.112112,VALID,22.8562,VALID,72,VALID,0,
2014-12-10, 00:12:04,VALID,1010.96,VALID,0,INVALID,132.032,VALID,0,VALID,22.874,VALID,72,VALID,0,
2014-12-10, 00:13:04,VALID,1010.94,VALID,0,INVALID,130.888,VALID,0.112112,VALID,22.8952,VALID,72,VALID,0,
2014-12-10, 00:14:04,VALID,1010.9,VALID,0,INVALID,127.975,VALID,0.112112,VALID,22.8952,VALID,72,VALID,0,
2014-12-10, 00:15:04,VALID,1010.87,VALID,0,INVALID,126.008,VALID,0.112112,VALID,22.9342,VALID,72,VALID,0,
2014-12-10, 00:16:04,VALID,1010.84,VALID,0,INVALID,124.254,VALID,0,VALID,22.9129,VALID,72,VALID,0,
2014-12-10, 00:17:04,VALID,1010.78,VALID,0,INVALID,122.904,VALID,0.112112,VALID,22.9536,VALID,72,VALID,0,
2014-12-10, 00:18:04,VALID,1010.74,VALID,0,INVALID,121.898,VALID,0,VALID,22.9536,VALID,72,VALID,0,
2014-12-10, 00:19:04,VALID,1010.73,VALID,0,INVALID,121.89,VALID,0.112112,VALID,22.9731,VALID,72,VALID,0,
2014-12-10, 00:20:04,VALID,1010.67,VALID,0,INVALID,122.698,VALID,0.112112,VALID,22.9731,VALID,72,VALID,0,
2014-12-10, 00:21:04,VALID,1010.65,VALID,0,INVALID,124.246,VALID,0.112112,VALID,22.9926,VALID,72,VALID,0,
2014-12-10, 00:22:04,VALID,1010.63,VALID,0,INVALID,124.468,VALID,0,VALID,22.9731,VALID,72,VALID,0,
2014-12-10, 00:23:04,VALID,1010.6,VALID,0,INVALID,125.81,VALID,0,VALID,22.9536,VALID,72,VALID,0,
2014-12-10, 00:24:04,VALID,1010.63,VALID,0,INVALID,126.832,VALID,0,VALID,22.9342,VALID,72,VALID,0,
2014-12-10, 00:25:04,VALID,1010.61,VALID,0,INVALID,128.936,VALID,0.112112,VALID,22.9147,VALID,72,VALID,0,
2014-12-10, 00:26:04,VALID,1010.63,VALID,0,INVALID,128.707,VALID,0,VALID,22.8952,VALID,72,VALID,0,
2014-12-10, 00:27:04,VALID,1010.63,VALID,0,INVALID,129.562,VALID,0,VALID,22.8562,VALID,72,VALID,0,
2014-12-10, 00:28:04,VALID,1010.63,VALID,0,INVALID,130.827,VALID,0.112112,VALID,22.8368,VALID,72,VALID,0,
2014-12-10, 00:29:04,VALID,1010.67,VALID,0,INVALID,131.811,VALID,0,VALID,22.8173,VALID,72,VALID,0,
2014-12-10, 00:30:04,VALID,1010.66,VALID,0,INVALID,131.849,VALID,0,VALID,22.7978,VALID,72,VALID,0,
2014-12-10, 00:31:04,VALID,1010.65,VALID,0,INVALID,132.33,VALID,0.112112,VALID,22.7571,VALID,72,VALID,0,
2014-12-10, 00:32:04,VALID,1010.64,VALID,0,INVALID,133.306,VALID,0,VALID,22.7588,VALID,72,VALID,0,
2014-12-10, 00:33:04,VALID,1010.64,VALID,0,INVALID,134.366,VALID,0,VALID,22.7588,VALID,72,VALID,0,
2014-12-10, 00:34:05,VALID,1010.64,VALID,0,INVALID,135.022,VALID,0,VALID,22.7394,VALID,72,VALID,0,
2014-12-10, 00:35:05,VALID,1010.62,VALID,0,INVALID,135.433,VALID,0,VALID,22.7394,VALID,72,VALID,0,
2014-12-10, 00:36:05,VALID,1010.59,VALID,0,INVALID,135.693,VALID,0,VALID,22.7199,VALID,72,VALID,0,
2014-12-10, 00:37:05,VALID,1010.57,VALID,0,INVALID,135.86,VALID,0,VALID,22.7004,VALID,72,VALID,0,
2014-12-10, 00:38:05,VALID,1010.58,VALID,0,INVALID,136.097,VALID,0,VALID,22.6809,VALID,72,VALID,0,
2014-12-10, 00:39:05,VALID,1010.58,VALID,0,INVALID,136.44,VALID,0.112112,VALID,22.6809,VALID,72,VALID,0,
2014-12-10, 00:40:05,VALID,1010.58,VALID,0,INVALID,136.646,VALID,0,VALID,22.6614,VALID,72,VALID,0,
2014-12-10, 00:41:05,VALID,1010.56,VALID,0,INVALID,136.806,VALID,0,VALID,22.6208,VALID,72,VALID,0,
2014-12-10, 00:42:05,VALID,1010.54,VALID,0,INVALID,137.042,VALID,0,VALID,22.6614,VALID,72,VALID,0,
2014-12-10, 00:43:05,VALID,1010.51,VALID,0,INVALID,137.187,VALID,0.112112,VALID,22.642,VALID,72,VALID,0,
2014-12-10, 00:44:05,VALID,1010.48,VALID,0,INVALID,137.302,VALID,0,VALID,22.642,VALID,72,VALID,0,
2014-12-10, 00:45:05,VALID,1010.45,VALID,0,INVALID,137.553,VALID,0,VALID,22.6225,VALID,72,VALID,0,
2014-12-10, 00:46:05,VALID,1010.43,VALID,0,INVALID,137.691,VALID,0,VALID,22.6632,VALID,72,VALID,0,
2014-12-10, 00:47:05,VALID,1010.43,VALID,0,INVALID,137.805,VALID,0,VALID,22.6225,VALID,72,VALID,0,
2014-12-10, 00:48:05,VALID,1010.4,VALID,0,INVALID,137.851,VALID,0,VALID,22.6225,VALID,72,VALID,0,
2014-12-10, 00:49:05,VALID,1010.39,VALID,0,INVALID,137.958,VALID,0,VALID,22.6437,VALID,72,VALID,0,
2014-12-10, 00:50:05,VALID,1010.37,VALID,0,INVALID,138.049,VALID,0,VALID,22.6437,VALID,72,VALID,0,
2014-12-10, 00:51:05,VALID,1010.35,VALID,0,INVALID,138.156,VALID,0,VALID,22.6225,VALID,72,VALID,0,
2014-12-10, 00:52:05,VALID,1010.36,VALID,0,INVALID,138.301,VALID,0,VALID,22.6225,VALID,72,VALID,0,
2014-12-10, 00:53:05,VALID,1010.34,VALID,0,INVALID,138.362,VALID,0,VALID,22.603,VALID,72,VALID,0,
2014-12-10, 00:54:05,VALID,1010.37,VALID,0,INVALID,138.43,VALID,0,VALID,22.603,VALID,72,VALID,0,
2014-12-10, 00:55:05,VALID,1010.36,VALID,0,INVALID,138.514,VALID,0,VALID,22.5835,VALID,72,VALID,0,
2014-12-10, 00:56:05,VALID,1010.4,VALID,0,INVALID,138.59,VALID,0,VALID,22.5818,VALID,72,VALID,0,
2014-12-10, 00:57:05,VALID,1010.39,VALID,0,INVALID,138.659,VALID,0,VALID,22.5835,VALID,72,VALID,0,
2014-12-10, 00:58:05,VALID,1010.39,VALID,0,INVALID,138.728,VALID,0,VALID,22.5835,VALID,72,VALID,0,
2014-12-10, 00:59:05,VALID,1010.35,VALID,0,INVALID,138.751,VALID,0,VALID,22.564,VALID,72,VALID,0,
2014-12-10, 01:00:05,VALID,1010.36,VALID,0,INVALID,138.819,VALID,0,VALID,22.5446,VALID,72,VALID,0,
2014-12-10, 01:01:05,VALID,1010.36,VALID,0,INVALID,138.888,VALID,0,VALID,22.5446,VALID,72,VALID,0,
2014-12-10, 01:02:05,VALID,1010.38,VALID,0,INVALID,138.873,VALID,0,VALID,22.5446,VALID,72,VALID,0,
2014-12-10, 01:03:05,VALID,1010.35,VALID,0,INVALID,138.934,VALID,0,VALID,22.5446,VALID,72,VALID,0,
2014-12-10, 01:04:05,VALID,1010.37,VALID,0,INVALID,138.949,VALID,0,VALID,22.5251,VALID,72,VALID,0,
2014-12-10, 01:05:05,VALID,1010.33,VALID,0,INVALID,138.956,VALID,0,VALID,22.5251,VALID,72,VALID,0,
2014-12-10, 01:06:05,VALID,1010.34,VALID,0,INVALID,138.956,VALID,0,VALID,22.5056,VALID,72,VALID,0,
2014-12-10, 01:07:05,VALID,1010.32,VALID,0,INVALID,138.987,VALID,0,VALID,22.5056,VALID,72,VALID,0,
2014-12-10, 01:08:05,VALID,1010.31,VALID,0,INVALID,139.002,VALID,0.112112,VALID,22.4861,VALID,72,VALID,0,
2014-12-10, 01:09:05,VALID,1010.29,VALID,0,INVALID,139.056,VALID,0,VALID,22.4667,VALID,72,VALID,0,
2014-12-10, 01:10:05,VALID,1010.3,VALID,0,INVALID,139.025,VALID,0,VALID,22.4472,VALID,72,VALID,0,
2014-12-10, 01:11:05,VALID,1010.27,VALID,0,INVALID,139.078,VALID,0,VALID,22.4472,VALID,72,VALID,0,
2014-12-10, 01:12:05,VALID,1010.27,VALID,0,INVALID,139.109,VALID,0,VALID,22.4684,VALID,72,VALID,0,
2014-12-10, 01:13:05,VALID,1010.26,VALID,0,INVALID,139.109,VALID,0,VALID,22.4277,VALID,72,VALID,0,
2014-12-10, 01:14:05,VALID,1010.25,VALID,0,INVALID,139.132,VALID,0,VALID,22.4277,VALID,72,VALID,0,
2014-12-10, 01:15:05,VALID,1010.22,VALID,0,INVALID,139.162,VALID,0,VALID,22.4277,VALID,72,VALID,0,
2014-12-10, 01:16:05,VALID,1010.22,VALID,0,INVALID,139.147,VALID,0,VALID,22.4277,VALID,72,VALID,0,
2014-12-10, 01:17:05,VALID,1010.22,VALID,0,INVALID,139.155,VALID,0,VALID,22.426,VALID,72,VALID,0,
2014-12-10, 01:18:05,VALID,1010.19,VALID,0,INVALID,139.147,VALID,0,VALID,22.4472,VALID,72,VALID,0,
2014-12-10, 01:19:05,VALID,1010.19,VALID,0,INVALID,139.139,VALID,0,VALID,22.4667,VALID,72,VALID,0,
2014-12-10, 01:20:05,VALID,1010.15,VALID,0,INVALID,139.04,VALID,0,VALID,22.4667,VALID,72,VALID,0,
2014-12-10, 01:21:05,VALID,1010.13,VALID,0,INVALID,139.01,VALID,0,VALID,22.4455,VALID,72,VALID,0,
2014-12-10, 01:22:05,VALID,1010.18,VALID,0,INVALID,138.934,VALID,0,VALID,22.4861,VALID,72,VALID,0,
2014-12-10, 01:23:05,VALID,1010.15,VALID,0,INVALID,138.827,VALID,0,VALID,22.4861,VALID,72,VALID,0,
2014-12-10, 01:24:05,VALID,1010.16,VALID,0,INVALID,138.781,VALID,0,VALID,22.4861,VALID,72,VALID,0,
2014-12-10, 01:25:05,VALID,1010.13,VALID,0,INVALID,138.766,VALID,0,VALID,22.4861,VALID,72,VALID,0,
2014-12-10, 01:26:05,VALID,1010.14,VALID,0,INVALID,138.705,VALID,0,VALID,22.4861,VALID,72,VALID,0,
2014-12-10, 01:27:05,VALID,1010.13,VALID,0,INVALID,138.682,VALID,0,VALID,22.4861,VALID,72,VALID,0,
2014-12-10, 01:28:05,VALID,1010.12,VALID,0,INVALID,138.674,VALID,0,VALID,22.4861,VALID,72,VALID,0,
2014-12-10, 01:29:05,VALID,1010.09,VALID,0,INVALID,138.583,VALID,0,VALID,22.4861,VALID,72,VALID,0,
2014-12-10, 01:30:05,VALID,1010.1,VALID,0,INVALID,138.423,VALID,0,VALID,22.4861,VALID,72,VALID,0,
2014-12-10, 01:31:05,VALID,1010.09,VALID,0,INVALID,138.278,VALID,0.112112,VALID,22.5056,VALID,72,VALID,0,
2014-12-10, 01:32:05,VALID,1010.11,VALID,0,INVALID,138.202,VALID,0,VALID,22.5056,VALID,72,VALID,0,
2014-12-10, 01:33:05,VALID,1010.05,VALID,0,INVALID,138.133,VALID,0,VALID,22.4861,VALID,72,VALID,0,
2014-12-10, 01:34:05,VALID,1010.04,VALID,0,INVALID,138.08,VALID,0,VALID,22.4861,VALID,72,VALID,0,
2014-12-10, 01:35:05,VALID,1010,VALID,0,INVALID,138.041,VALID,0.112112,VALID,22.5056,VALID,72,VALID,0,
2014-12-10, 01:36:05,VALID,1010,VALID,0,INVALID,137.942,VALID,0,VALID,22.5056,VALID,72,VALID,0,
2014-12-10, 01:37:05,VALID,1010.01,VALID,0,INVALID,137.858,VALID,0,VALID,22.5056,VALID,72,VALID,0,
2014-12-10, 01:38:05,VALID,1009.97,VALID,0,INVALID,137.767,VALID,0,VALID,22.5056,VALID,72,VALID,0,
2014-12-10, 01:39:05,VALID,1009.95,VALID,0,INVALID,137.683,VALID,0,VALID,22.5251,VALID,72,VALID,0,
2014-12-10, 01:40:05,VALID,1009.94,VALID,0,INVALID,137.652,VALID,0.112112,VALID,22.5056,VALID,72,VALID,0,
2014-12-10, 01:41:05,VALID,1009.92,VALID,0,INVALID,137.599,VALID,0.112112,VALID,22.5056,VALID,72,VALID,0,
2014-12-10, 01:42:05,VALID,1009.93,VALID,0,INVALID,137.607,VALID,0.112112,VALID,22.5056,VALID,72,VALID,0,
2014-12-10, 01:43:05,VALID,1009.9,VALID,0,INVALID,137.576,VALID,0.112112,VALID,22.5056,VALID,72,VALID,0,
2014-12-10, 01:44:05,VALID,1009.89,VALID,0,INVALID,137.546,VALID,0.112112,VALID,22.5056,VALID,72,VALID,0,
2014-12-10, 01:45:05,VALID,1009.9,VALID,0,INVALID,137.462,VALID,0.112112,VALID,22.4844,VALID,72,VALID,0,
2014-12-10, 01:46:05,VALID,1009.9,VALID,0,INVALID,137.363,VALID,0.112112,VALID,22.5056,VALID,72,VALID,0,
2014-12-10, 01:47:05,VALID,1009.88,VALID,0,INVALID,137.264,VALID,0,VALID,22.5251,VALID,72,VALID,0,
2014-12-10, 01:48:05,VALID,1009.88,VALID,0,INVALID,137.149,VALID,0,VALID,22.5234,VALID,72,VALID,0,
2014-12-10, 01:49:05,VALID,1009.9,VALID,0,INVALID,137.012,VALID,0,VALID,22.5446,VALID,72,VALID,0,
2014-12-10, 01:50:05,VALID,1009.88,VALID,0,INVALID,136.936,VALID,0,VALID,22.5446,VALID,72,VALID,0,
2014-12-10, 01:51:05,VALID,1009.86,VALID,0,INVALID,136.89,VALID,0.112112,VALID,22.5234,VALID,72,VALID,0,
2014-12-10, 01:52:05,VALID,1009.85,VALID,0,INVALID,136.821,VALID,0.112112,VALID,22.5446,VALID,72,VALID,0,
2014-12-10, 01:53:05,VALID,1009.87,VALID,0,INVALID,136.776,VALID,0,VALID,22.5446,VALID,72,VALID,0,
2014-12-10, 01:54:05,VALID,1009.84,VALID,0,INVALID,136.745,VALID,0,VALID,22.5446,VALID,72,VALID,0,
2014-12-10, 01:55:05,VALID,1009.83,VALID,0,INVALID,136.638,VALID,0,VALID,22.5429,VALID,72,VALID,0,
2014-12-10, 01:56:05,VALID,1009.81,VALID,0,INVALID,136.539,VALID,0,VALID,22.5835,VALID,72,VALID,0,
2014-12-10, 01:57:05,VALID,1009.83,VALID,0,INVALID,136.47,VALID,0,VALID,22.5835,VALID,72,VALID,0,
2014-12-10, 01:58:05,VALID,1009.81,VALID,0,INVALID,136.409,VALID,0,VALID,22.5818,VALID,72,VALID,0,
2014-12-10, 01:59:05,VALID,1009.81,VALID,0,INVALID,136.394,VALID,0.112112,VALID,22.603,VALID,72,VALID,0,
2014-12-10, 02:00:05,VALID,1009.8,VALID,0,INVALID,136.387,VALID,0,VALID,22.5818,VALID,72,VALID,0,
2014-12-10, 02:01:05,VALID,1009.77,VALID,0,INVALID,136.371,VALID,0,VALID,22.603,VALID,72,VALID,0,
2014-12-10, 02:02:05,VALID,1009.75,VALID,0,INVALID,136.318,VALID,0,VALID,22.603,VALID,72,VALID,0,
2014-12-10, 02:03:05,VALID,1009.77,VALID,0,INVALID,136.31,VALID,0,VALID,22.603,VALID,72,VALID,0,
2014-12-10, 02:04:05,VALID,1009.76,VALID,0,INVALID,136.249,VALID,0,VALID,22.603,VALID,72,VALID,0,
2014-12-10, 02:05:05,VALID,1009.75,VALID,0,INVALID,136.211,VALID,0.112112,VALID,22.642,VALID,72,VALID,0,
2014-12-10, 02:06:05,VALID,1009.74,VALID,0,INVALID,136.196,VALID,0,VALID,22.642,VALID,72,VALID,0,
2014-12-10, 02:07:05,VALID,1009.75,VALID,0,INVALID,136.188,VALID,0.112112,VALID,22.6208,VALID,72,VALID,0,
2014-12-10, 02:08:05,VALID,1009.75,VALID,0,INVALID,136.158,VALID,0,VALID,22.642,VALID,72,VALID,0,
2014-12-10, 02:09:05,VALID,1009.74,VALID,0,INVALID,136.188,VALID,0.112112,VALID,22.642,VALID,72,VALID,0,
2014-12-10, 02:10:05,VALID,1009.76,VALID,0,INVALID,136.211,VALID,0,VALID,22.6614,VALID,72,VALID,0,
2014-12-10, 02:11:05,VALID,1009.76,VALID,0,INVALID,136.204,VALID,0,VALID,22.642,VALID,72,VALID,0,
2014-12-10, 02:12:05,VALID,1009.73,VALID,0,INVALID,136.204,VALID,0.112112,VALID,22.642,VALID,72,VALID,0,
2014-12-10, 02:13:05,VALID,1009.71,VALID,0,INVALID,136.242,VALID,0,VALID,22.642,VALID,72,VALID,0,
2014-12-10, 02:14:05,VALID,1009.71,VALID,0,INVALID,136.287,VALID,0.112112,VALID,22.642,VALID,72,VALID,0,
2014-12-10, 02:15:05,VALID,1009.71,VALID,0,INVALID,136.295,VALID,0.112112,VALID,22.6208,VALID,72,VALID,0,
2014-12-10, 02:16:05,VALID,1009.67,VALID,0,INVALID,136.333,VALID,0,VALID,22.6225,VALID,72,VALID,0,
2014-12-10, 02:17:05,VALID,1009.67,VALID,0,INVALID,136.379,VALID,0,VALID,22.6013,VALID,72,VALID,0,
2014-12-10, 02:18:05,VALID,1009.66,VALID,0,INVALID,136.409,VALID,0,VALID,22.6225,VALID,72,VALID,0,
2014-12-10, 02:19:05,VALID,1009.63,VALID,0,INVALID,136.432,VALID,0,VALID,22.6013,VALID,72,VALID,0,
2014-12-10, 02:20:05,VALID,1009.65,VALID,0,INVALID,136.486,VALID,0,VALID,22.6225,VALID,72,VALID,0,
2014-12-10, 02:21:05,VALID,1009.65,VALID,0,INVALID,136.585,VALID,0,VALID,22.603,VALID,72,VALID,0,
2014-12-10, 02:22:05,VALID,1009.63,VALID,0,INVALID,136.654,VALID,0,VALID,22.603,VALID,72,VALID,0,
2014-12-10, 02:23:05,VALID,1009.65,VALID,0,INVALID,136.676,VALID,0.112112,VALID,22.5835,VALID,72,VALID,0,
2014-12-10, 02:24:05,VALID,1009.66,VALID,0,INVALID,136.707,VALID,0,VALID,22.5623,VALID,72,VALID,0,
2014-12-10, 02:25:05,VALID,1009.65,VALID,0,INVALID,136.692,VALID,0.112112,VALID,22.5623,VALID,72,VALID,0,
2014-12-10, 02:26:05,VALID,1009.65,VALID,0,INVALID,136.76,VALID,0,VALID,22.5835,VALID,72,VALID,0,
2014-12-10, 02:27:05,VALID,1009.65,VALID,0,INVALID,136.776,VALID,0.112112,VALID,22.603,VALID,72,VALID,0,
2014-12-10, 02:28:05,VALID,1009.63,VALID,0,INVALID,136.798,VALID,0.112112,VALID,22.5835,VALID,72,VALID,0,
2014-12-10, 02:29:05,VALID,1009.63,VALID,0,INVALID,136.783,VALID,0.112112,VALID,22.5835,VALID,72,VALID,0,
2014-12-10, 02:30:05,VALID,1009.63,VALID,0,INVALID,136.791,VALID,0.112112,VALID,22.603,VALID,72,VALID,0,
2014-12-10, 02:31:05,VALID,1009.61,VALID,0,INVALID,136.776,VALID,0,VALID,22.5818,VALID,72,VALID,0,
2014-12-10, 02:32:05,VALID,1009.61,VALID,0,INVALID,136.737,VALID,0,VALID,22.603,VALID,72,VALID,0,
2014-12-10, 02:33:05,VALID,1009.6,VALID,0,INVALID,136.776,VALID,0,VALID,22.5818,VALID,72,VALID,0,
2014-12-10, 02:34:05,VALID,1009.61,VALID,0,INVALID,136.776,VALID,0,VALID,22.603,VALID,72,VALID,0,
2014-12-10, 02:35:05,VALID,1009.56,VALID,0,INVALID,136.745,VALID,0,VALID,22.5818,VALID,72,VALID,0,
2014-12-10, 02:36:05,VALID,1009.58,VALID,0,INVALID,136.76,VALID,0,VALID,22.603,VALID,72,VALID,0,
2014-12-10, 02:37:05,VALID,1009.59,VALID,0,INVALID,136.753,VALID,0,VALID,22.6013,VALID,72,VALID,0,
2014-12-10, 02:38:05,VALID,1009.57,VALID,0,INVALID,136.722,VALID,0,VALID,22.603,VALID,72,VALID,0,
2014-12-10, 02:39:05,VALID,1009.57,VALID,0,INVALID,136.737,VALID,0,VALID,22.603,VALID,72,VALID,0,
2014-12-10, 02:40:05,VALID,1009.58,VALID,0,INVALID,136.745,VALID,0,VALID,22.603,VALID,72,VALID,0,
2014-12-10, 02:41:05,VALID,1009.57,VALID,0,INVALID,136.798,VALID,0,VALID,22.603,VALID,72,VALID,0,
2014-12-10, 02:42:05,VALID,1009.56,VALID,0,INVALID,136.837,VALID,0.112112,VALID,22.5835,VALID,72,VALID,0,
2014-12-10, 02:43:05,VALID,1009.53,VALID,0,INVALID,136.898,VALID,0.112112,VALID,22.5835,VALID,72,VALID,0,
2014-12-10, 02:44:05,VALID,1009.57,VALID,0,INVALID,136.928,VALID,0,VALID,22.5835,VALID,72,VALID,0,
2014-12-10, 02:45:05,VALID,1009.52,VALID,0,INVALID,136.92,VALID,0,VALID,22.5623,VALID,72,VALID,0,
2014-12-10, 02:46:05,VALID,1009.48,VALID,0,INVALID,136.943,VALID,0,VALID,22.5835,VALID,72,VALID,0,
2014-12-10, 02:47:05,VALID,1009.48,VALID,0,INVALID,136.943,VALID,0.112112,VALID,22.603,VALID,72,VALID,0,
2014-12-10, 02:48:05,VALID,1009.47,VALID,0,INVALID,136.959,VALID,0,VALID,22.603,VALID,72,VALID,0,
2014-12-10, 02:49:05,VALID,1009.46,VALID,0,INVALID,136.92,VALID,0.112112,VALID,22.5818,VALID,72,VALID,0,
2014-12-10, 02:50:05,VALID,1009.45,VALID,0,INVALID,136.943,VALID,0.112112,VALID,22.603,VALID,72,VALID,0,
2014-12-10, 02:51:05,VALID,1009.41,VALID,0,INVALID,136.974,VALID,0,VALID,22.5835,VALID,72,VALID,0,
2014-12-10, 02:52:05,VALID,1009.39,VALID,0,INVALID,136.974,VALID,0.112112,VALID,22.603,VALID,72,VALID,0,
2014-12-10, 02:53:05,VALID,1009.39,VALID,0,INVALID,136.913,VALID,0,VALID,22.603,VALID,72,VALID,0,
2014-12-10, 02:54:05,VALID,1009.4,VALID,0,INVALID,136.943,VALID,0,VALID,22.603,VALID,72,VALID,0,
2014-12-10, 02:55:05,VALID,1009.39,VALID,0,INVALID,136.943,VALID,0,VALID,22.5818,VALID,72,VALID,0,
2014-12-10, 02:56:05,VALID,1009.35,VALID,0,INVALID,136.959,VALID,0.112112,VALID,22.5818,VALID,72,VALID,0,
2014-12-10, 02:57:05,VALID,1009.39,VALID,0,INVALID,136.951,VALID,0.112112,VALID,22.6225,VALID,72,VALID,0,
2014-12-10, 02:58:05,VALID,1009.35,VALID,0,INVALID,136.981,VALID,0.112112,VALID,22.6225,VALID,72,VALID,0,
2014-12-10, 02:59:05,VALID,1009.38,VALID,0,INVALID,136.959,VALID,0,VALID,22.603,VALID,72,VALID,0,
2014-12-10, 03:00:05,VALID,1009.35,VALID,0,INVALID,136.913,VALID,0,VALID,22.6013,VALID,72,VALID,0,
2014-12-10, 03:01:05,VALID,1009.35,VALID,0,INVALID,136.92,VALID,0,VALID,22.642,VALID,72,VALID,0,
2014-12-10, 03:02:05,VALID,1009.33,VALID,0,INVALID,136.898,VALID,0.112112,VALID,22.642,VALID,72,VALID,0,
2014-12-10, 03:03:05,VALID,1009.33,VALID,0,INVALID,136.882,VALID,0,VALID,22.6208,VALID,72,VALID,0,
2014-12-10, 03:04:05,VALID,1009.36,VALID,0,INVALID,136.951,VALID,0,VALID,22.642,VALID,72,VALID,0,
2014-12-10, 03:05:05,VALID,1009.35,VALID,0,INVALID,137.004,VALID,0,VALID,22.6225,VALID,72,VALID,0,
2014-12-10, 03:06:05,VALID,1009.35,VALID,0,INVALID,137.111,VALID,0.112112,VALID,22.6013,VALID,72,VALID,0,
2014-12-10, 03:07:05,VALID,1009.35,VALID,0,INVALID,137.21,VALID,0,VALID,22.6225,VALID,72,VALID,0,
2014-12-10, 03:08:05,VALID,1009.35,VALID,0,INVALID,137.279,VALID,0,VALID,22.603,VALID,72,VALID,0,
2014-12-10, 03:09:05,VALID,1009.33,VALID,0,INVALID,137.294,VALID,0,VALID,22.603,VALID,72,VALID,0,
2014-12-10, 03:10:05,VALID,1009.35,VALID,0,INVALID,137.37,VALID,0.112112,VALID,22.603,VALID,72,VALID,0,
2014-12-10, 03:11:05,VALID,1009.35,VALID,0,INVALID,137.431,VALID,0,VALID,22.5818,VALID,72,VALID,0,
2014-12-10, 03:12:05,VALID,1009.36,VALID,0,INVALID,137.454,VALID,0,VALID,22.603,VALID,72,VALID,0,
2014-12-10, 03:13:04,VALID,1009.39,VALID,0,INVALID,137.469,VALID,0,VALID,22.603,VALID,72,VALID,0,
2014-12-10, 03:14:04,VALID,1009.38,VALID,0,INVALID,137.447,VALID,0.112112,VALID,22.6225,VALID,72,VALID,0,
2014-12-10, 03:15:04,VALID,1009.39,VALID,0,INVALID,137.416,VALID,0,VALID,22.6225,VALID,72,VALID,0,
2014-12-10, 03:16:04,VALID,1009.4,VALID,0,INVALID,137.386,VALID,0,VALID,22.6225,VALID,72,VALID,0,
2014-12-10, 03:17:04,VALID,1009.41,VALID,0,INVALID,137.347,VALID,0,VALID,22.642,VALID,72,VALID,0,
2014-12-10, 03:18:04,VALID,1009.4,VALID,0,INVALID,137.286,VALID,0,VALID,22.642,VALID,72,VALID,0,
2014-12-10, 03:19:04,VALID,1009.41,VALID,0,INVALID,137.264,VALID,0.112112,VALID,22.6614,VALID,72,VALID,0,
2014-12-10, 03:20:04,VALID,1009.4,VALID,0,INVALID,137.233,VALID,0,VALID,22.642,VALID,72,VALID,0,
2014-12-10, 03:21:04,VALID,1009.4,VALID,0,INVALID,137.256,VALID,0,VALID,22.6225,VALID,72,VALID,0,
2014-12-10, 03:22:04,VALID,1009.42,VALID,0,INVALID,137.279,VALID,0,VALID,22.6225,VALID,72,VALID,0,
2014-12-10, 03:23:04,VALID,1009.42,VALID,0,INVALID,137.271,VALID,0,VALID,22.6225,VALID,72,VALID,0,
2014-12-10, 03:24:04,VALID,1009.39,VALID,0,INVALID,137.294,VALID,0.112112,VALID,22.603,VALID,72,VALID,0,
2014-12-10, 03:25:04,VALID,1009.41,VALID,0,INVALID,137.286,VALID,0,VALID,22.603,VALID,72,VALID,0,
2014-12-10, 03:26:04,VALID,1009.38,VALID,0,INVALID,137.302,VALID,0,VALID,22.603,VALID,72,VALID,0,
2014-12-10, 03:27:04,VALID,1009.38,VALID,0,INVALID,137.309,VALID,0,VALID,22.603,VALID,72,VALID,0,
2014-12-10, 03:28:04,VALID,1009.38,VALID,0,INVALID,137.309,VALID,0,VALID,22.603,VALID,72,VALID,0,
2014-12-10, 03:29:04,VALID,1009.38,VALID,0,INVALID,137.294,VALID,0,VALID,22.5623,VALID,72,VALID,0,
2014-12-10, 03:30:04,VALID,1009.4,VALID,0,INVALID,137.225,VALID,0,VALID,22.5835,VALID,72,VALID,0,
2014-12-10, 03:31:04,VALID,1009.37,VALID,0,INVALID,137.195,VALID,0,VALID,22.5835,VALID,72,VALID,0,
2014-12-10, 03:32:04,VALID,1009.4,VALID,0,INVALID,137.187,VALID,0,VALID,22.6047,VALID,72,VALID,0,
2014-12-10, 03:33:04,VALID,1009.41,VALID,0,INVALID,137.187,VALID,0,VALID,22.5835,VALID,72,VALID,0,
2014-12-10, 03:34:04,VALID,1009.46,VALID,0,INVALID,137.172,VALID,0,VALID,22.5835,VALID,72,VALID,0,
2014-12-10, 03:35:04,VALID,1009.45,VALID,0,INVALID,137.149,VALID,0,VALID,22.5835,VALID,72,VALID,0,
2014-12-10, 03:36:04,VALID,1009.46,VALID,0,INVALID,137.149,VALID,0,VALID,22.5818,VALID,72,VALID,0,
2014-12-10, 03:37:04,VALID,1009.45,VALID,0,INVALID,137.126,VALID,0,VALID,22.603,VALID,72,VALID,0,
2014-12-10, 03:38:04,VALID,1009.46,VALID,0,INVALID,137.088,VALID,0,VALID,22.603,VALID,72,VALID,0,
2014-12-10, 03:39:04,VALID,1009.46,VALID,0,INVALID,137.042,VALID,0,VALID,22.6225,VALID,72,VALID,0,
2014-12-10, 03:40:04,VALID,1009.47,VALID,0,INVALID,136.989,VALID,0,VALID,22.6225,VALID,72,VALID,0,
2014-12-10, 03:41:04,VALID,1009.45,VALID,0,INVALID,136.936,VALID,0,VALID,22.6225,VALID,72,VALID,0,
2014-12-10, 03:42:04,VALID,1009.44,VALID,0,INVALID,136.882,VALID,0,VALID,22.6225,VALID,72,VALID,0,
2014-12-10, 03:43:04,VALID,1009.43,VALID,0,INVALID,136.859,VALID,0,VALID,22.6225,VALID,72,VALID,0,
2014-12-10, 03:44:04,VALID,1009.42,VALID,0,INVALID,136.821,VALID,0,VALID,22.642,VALID,72,VALID,0,
2014-12-10, 03:45:04,VALID,1009.44,VALID,0,INVALID,136.76,VALID,0,VALID,22.6614,VALID,72,VALID,0,
2014-12-10, 03:46:04,VALID,1009.42,VALID,0,INVALID,136.692,VALID,0,VALID,22.6614,VALID,72,VALID,0,
2014-12-10, 03:47:04,VALID,1009.47,VALID,0,INVALID,136.692,VALID,0.112112,VALID,22.6809,VALID,72,VALID,0,
2014-12-10, 03:48:04,VALID,1009.47,VALID,0,INVALID,136.608,VALID,0,VALID,22.6809,VALID,72,VALID,0,
2014-12-10, 03:49:04,VALID,1009.48,VALID,0,INVALID,136.577,VALID,0,VALID,22.7004,VALID,72,VALID,0,
2014-12-10, 03:50:04,VALID,1009.47,VALID,0,INVALID,136.539,VALID,0,VALID,22.7004,VALID,72,VALID,0,
2014-12-10, 03:51:04,VALID,1009.46,VALID,0,INVALID,136.478,VALID,0,VALID,22.6987,VALID,72,VALID,0,
2014-12-10, 03:52:04,VALID,1009.47,VALID,0,INVALID,136.425,VALID,0,VALID,22.7199,VALID,72,VALID,0,
2014-12-10, 03:53:04,VALID,1009.46,VALID,0,INVALID,136.364,VALID,0,VALID,22.7182,VALID,72,VALID,0,